STARLINK-31420, 59223

Orbit data source: Space-Track

STARLINK-31420, 59223 is a payload satellite owned by SpaceX/Seattle (US) in LEO that was launched on Mon, 11 Mar 2024 UTC via an FALCON 9 launch vehicle from the Air Force Western Test Range (AFWTR). Payload-class satellites include a variety of spacecraft equipped with specific instruments for various scientific and technological missions. These include communications satellites like Starlink; space stations such as the ISS; scientific satellites like the Hubble; Earth observation satellites from companies like Planet Labs, Umbra, and HawkEye 360; GPS; miniature CubeSats for education and research; and military/defense satellites.

Loading next visibility...
Identifier
59223, 2024-046Y
Orbit
LEO
Country
Flag of USUS
Related business
Manufacturer
SpaceX/Seattle
Mission
Operational Commercial Communications
Bus & Motor
STARLINK V2M, Unknown motor
Mass
730 kg wet, ~700 kg dry
Launch date (UTC)
2024-03-11 (2 years ago)
Launch vehicle
FALCON 9
Launch site
Air Force Western Test Range (AFWTR)
Object type
Payload
Rocket body
Debris
Shape & HBR
Box + 2 Pan, 17.7 m
Radar Cross Section
33.884 m², Large (>1 m²)

Expand to show TLE details & history
Last TLE update: 2 days ago

TLE from 2 days ago
0 STARLINK-31420
1 59223U 24046Y   26170.95554157  .00001525  00000-0  63605-4 0  9991
2 59223  53.1622  40.5487 0000904 123.0540 237.0548 15.30202216128695
Epoch: 2026-06-19T22:55Z
TLE epoch observation values (Epoch: 2026-06-19T22:55:58.791Z)
Latitude
-0.00001°
Longitude
148.37664°
Altitude
476.445 km
Speed
7.629 km/s
True Right ascension
02h 42m 11s
True Declination
0° 00' 00"
Sunlit
Object was in daylight at epoch
Visualization orbit readout
Latitude
Unknown
Longitude
Unknown
Altitude
Unknown
Speed
Unknown
Apparent Right ascension
Unknown
Apparent Declination
Unknown
Sunlit
N/A
Visualization observer readout
Local Sidereal Time
21:30:03
Azimuth
Unknown
Elevation
Unknown
Doppler factor
Unknown
Orbital elements
Apogee altitude
476.084 km
Perigee altitude
474.845 km
Semi-major axis
6,853.602 km
Eccentricity
0.00009
Inclination
53.1622°
RAAN
40.5487°
Arg. of periapsis
123.054°
True anomaly
237.04611°
Mean anomaly
237.0548°
Eccentric anomaly
237.05045°
Mean motion
3.82529 °/min
Orbital period
94.11 mins
BSTAR
0.000063605
Loading maneuver chart data...
Computing Atmospheric mass density...
Loading historical data...
Loading historical data...
Loading historical data...
Loading historical data...
Loading historical data...
Loading historical data...
Loading historical data...

Documentation

Showing up to 5 results
|